[Iaude] MPEC L54: 2024 LY [a=2.61,e=0.65,i=6.6,H=21.6]
    mpec at cfa.harvard.edu 
    mpec at cfa.harvard.edu
       
    Tue Jun  4 22:14:17 EDT 2024
    
    
  
M.P.E.C. 2024-L54                                  Issued 2024 June 5, 02:12 UT
     The Minor Planet Electronic Circulars contain information on unusual
         minor planets, routine data on comets and natural satellites,
         and occasional editorial announcements.  They are published
    on behalf of Division F of the International Astronomical Union by the
          Minor Planet Center, Smithsonian Astrophysical Observatory,
                          Cambridge, MA 02138, U.S.A.
			  
             Prepared using the Tamkin Foundation Computer Network
                              MPC at CFA.HARVARD.EDU
            URL https://www.minorplanetcenter.net/    ISSN 1523-6714
                                    2024 LY                                     
Observations:
     K24L00Y  C2024 04 09.56842114 55 50.080-18 18 08.67         22.12GVEL054F51
     K24L00Y  C2024 04 09.58044714 55 49.868-18 18 14.87         22.64GVEL054F51
     K24L00Y  C2024 04 09.59244114 55 49.651-18 18 20.96         22.55GVEL054F51
     K24L00Y  C2024 04 09.60450114 55 49.428-18 18 27.14         22.55GVEL054F51
     K24L00Y  C2024 05 30.26242413 10 33.905-34 14 24.13         19.64GVEL054F51
     K24L00Y*KC2024 06 04.00098 12 41 54.09 -37 19 03.9          19.8 rqEL054X74
     K24L00Y KC2024 06 04.00617 12 41 51.85 -37 19 16.4          19.7 rqEL054X74
     K24L00Y KC2024 06 04.01116 12 41 49.78 -37 19 29.0          19.5 rqEL054X74
     K24L00Y KC2024 06 04.07883 12 41 20.47 -37 22 09.9          18.7 rqEL054X74
     K24L00Y KC2024 06 04.08602 12 41 17.35 -37 22 26.7          19.4 rqEL054X74
     K24L00Y KC2024 06 04.09317 12 41 14.27 -37 22 43.2          19.6 rqEL054X74
     K24L00Y KC2024 06 04.29575712 39 54.257-37 30 50.72         20.1 GVEL054474
     K24L00Y KC2024 06 04.29757912 39 53.462-37 30 55.40         19.6 GVEL054474
     K24L00Y KC2024 06 04.29940212 39 52.678-37 30 59.90         19.6 GVEL054474
     K24L00Y KC2024 06 04.30122512 39 51.878-37 31 04.51         19.4 GVEL054474
     K24L00Y KC2024 06 04.40986512 39 04.438-37 35 32.78         19.7 GVEL054474
     K24L00Y KC2024 06 04.41350312 39 02.851-37 35 41.71         19.9 GVEL054474
     K24L00Y KC2024 06 04.41714812 39 01.250-37 35 50.68         19.6 GVEL054474
     K24L00Y KC2024 06 04.42079612 38 59.633-37 35 59.42         19.6 GVEL054474
     K24L00Y KC2024 06 04.82134 12 36 10.13 -37 52 53.6          19.5 GVEL054M21
     K24L00Y KC2024 06 04.83549 12 36 03.67 -37 53 27.6          19.5 GVEL054M21
     K24L00Y KC2024 06 04.85445 12 35 55.18 -37 54 13.3                VEL054M21
     K24L00Y KB2024 06 04.90184312 35 37.642-37 56 16.69         21.1 VZEL054Y05
     K24L00Y KB2024 06 04.90957512 35 34.171-37 56 37.92         18.8 VZEL054Y05
Observer details:
474 Mount John Observatory, Lake Tekapo.  Observers A. C. Gilmore, P. M.
    Kilmartin.  Measurer P. M. Kilmartin.  1.0-m f/7.7 Reflector + CCD.
F51 Pan-STARRS 1, Haleakala.  Observers J. Herman, T. Lowe, P. Minguez, A.
    Schultz, I. Smith.  Measurers K. Chambers, T. de Boer, J. Fairlamb, H.
    Gao, M. Huber, C.-C. Lin, E. Magnier, Y. Ramanjooloo, R. Wainscoat, R.
    Weryk.  1.8-m Ritchey-Chretien + CCD.
M21 Schiaparelli Southern Observatory, Hakos.  Observers A. Aletti, F.
    Bellini, L. Buzzi, G. Galli.  Measurer G. Galli.  0.36-m f/8.4 reflector +
    CCD.
X74 Observatorio Campo dos Amarais.  Observer L. S. Amaral.  0.31-m f/3.4
    Newtonian + CCD.
Y05 SONEAR Wykrota-CEAMIG, Serra da Piedade.  Observers C. Jacques, A.
    Caetano, E. Pimentel.  Measurer C. Jacques.  0.45-m f/2.9 reflector + CMO.
Orbital elements:
2024 LY                                                  Earth MOID = 0.0732 AU
Epoch 2024 Mar. 31.0 TT = JDT 2460400.5                 Veres                   
M 333.91198              (2000.0)            P               Q                  
n   0.23417529     Peri.  280.41988     +0.58054145     +0.81274306             
a   2.6068058      Node    25.26588     -0.69467271     +0.52591084             
e   0.6472211      Incl.    6.61888     -0.42473692     +0.25073196             
P   4.21           H   21.62          G   0.15           U   8                  
Residuals in seconds of arc
240409 F51  0.0   0.0     240604 X74  0.0   0.3-    240604 474  0.1-  0.0
240409 F51  0.1+  0.0     240604 X74  0.3-  0.2-    240604 474  0.2-  0.1-
240409 F51  0.0   0.0     240604 X74  0.4-  0.0     240604 474  0.5-  0.0
240409 F51  0.1-  0.0     240604 474  0.0   0.1+    240604 M21  0.5+  0.2-
240530 F51  0.0   0.0     240604 474  0.1-  0.0     240604 M21  0.1-  0.3+
240604 X74  0.6-  0.2+    240604 474  0.0   0.1+    240604 M21  0.8+  0.4+
240604 X74  0.5-  0.3+    240604 474  0.1-  0.1+    240604 Y05  0.1+  0.6+
240604 X74  0.7+  0.3-    240604 474  0.2-  0.1+    240604 Y05  0.7+  1.0-
Ephemeris:
2024 LY                  a,e,i = 2.61, 0.65, 7                   q = 0.9196
Date    TT    R. A. (2000) Decl.     Delta      r    Elong.  Phase     V
2024 05 06    14 30 32.0 -23 41 45   0.3653  1.3709   171.1     6.5    20.6
...
2024 05 21    13 50 54.0 -29 14 10   0.2530  1.2398   151.2    23.2    20.2
...
2024 05 29    13 17 06.4 -33 27 59   0.2062  1.1733   137.3    35.9    20.0
...
2024 06 04    12 41 55.7 -37 18 46   0.1765  1.1261   125.5    47.2    19.9
2024 06 05    12 34 54.6 -38 00 05   0.1720  1.1185   123.4    49.3    19.9
2024 06 06    12 27 29.4 -38 41 57   0.1677  1.1109   121.2    51.4    19.9
...
2024 06 12    11 32 33.4 -42 52 13   0.1447  1.0677   107.4    65.2    19.9
...
2024 06 20    09 43 25.5 -46 03 44   0.1241  1.0164    86.6    86.4    20.2
...
2024 07 05    06 09 43.8 -30 28 29   0.1324  0.9459    54.5   119.0    21.9
M. P. C. Staff               (C) Copyright 2024 MPC           M.P.E.C. 2024-L54
    
    
More information about the Iaude
mailing list